Карточка аэропорта UARR

Внимание!
Информация на этой странице в стадии наполнения.
Если вы не увидели какой-то информации, или заметили неточность - пожалуйста сообщите нам!
Спасибо!
Команда RU-STAFF
Название аэропортаУральск
Название аэропорта (англ.)Uralsk
Превышение128 ft. (39 m.)
Координаты51°9.0479999999998', 51°32.586'
Высота перехода10000ft
Эшелон переходаFL120, QNH<733:FL130
Коды ответчика3470-3473, 3570-3577
Зона ОрВДАктобе РПИ (UATT)
Данные METARUARR 271030Z 03002MPS CAVOK M12/M13 Q1023 NOSIG RMK QFE764/1018
Проноз погоды (TAF)NODATA
NOTAMshow/hide NOTAM
AWOS   TABLE

Информация о ВПП

ВПП Длина ВПП (м.) Покрытие Курс ВПП Частота ILS
042799Бетон52111.3
222799Бетон232109.7

Диспетчерские позиции




Спутниковое изображение